Weather Roundup
Issued by NWS

Home | Current Version | Previous Version | Graphics & Text | Print | Product List | Glossary Off
Versions: 1 2 3 4 5 6 7 8 9 10 11 12 13 14 15 16 17 18 19 20 21 22 23 24 25 26 27 28 29 30 31 32 33 34 35 36 37 38 39 40 41 42 43 44 45 46 47 48 49 50

000
NZUS93 KARX 031759
HRRWXR

CURRENT HOURLY OBSERVATIONS ACROSS
MUCH OF THE UPPER MISSISSIPPI VALLEY
NATIONAL WEATHER SERVICE LA CROSSE WI
100 PM CDT MON AUG 03 2015


...SOUTHEAST MINNESOTA...


CITY           SKY/WX    TMP DP  RH WIND       PRES   REMARKS
ROCHESTER      SUNNY     73  54  51 NW12G22   29.95S
ROCHESTER/MAYO FAIR      74  45  35 NW12G18   29.93F
WINONA         SUNNY     77  46  33 W13G20    29.90F
AUSTIN         SUNNY     75  52  43 W15       29.95F
ALBERT LEA     MOSUNNY   75  54  46 NW8G18    29.95F
DODGE CENTER   SUNNY     73  48  40 NW12      29.95S
PRESTON        SUNNY     73  52  47 NW13      29.95S
OWATONNA       SUNNY     75  48  38 NW16      29.95S
FARIBAULT      SUNNY     73  54  49 NW8       29.94S
$$

...ELSEWHERE IN MINNESOTA...


CITY           SKY/WX    TMP DP  RH WIND       PRES   REMARKS
MINNEAPOLIS    MOSUNNY   76  48  37 NW14      29.91F
INTNL FALLS    CLOUDY    64  54  69 NW16G22   29.84S
DULUTH         PTSUNNY   67  51  56 NW13      29.85F
RED WING       SUNNY     79  45  29 N10G17    29.89F
REDWOOD FALLS  SUNNY     79  49  34 NW12      29.96S
MANKATO        SUNNY     75  50  41 NW14G21   29.95S
WORTHINGTON    MOSUNNY   75  52  43 NW7       30.00S
FAIRMONT       SUNNY     75  50  41 NW12G17   29.97S
$$

...SOUTHWEST WISCONSIN...


CITY           SKY/WX    TMP DP  RH WIND       PRES   REMARKS
LA CROSSE      SUNNY     79  48  33 NW15      29.89S
PRAIRIE DU CHI SUNNY     79  43  28 W13       29.91S
BOSCOBEL       SUNNY     81  50  33 W16       29.90F
LONE ROCK      NOT AVBL
PLATTEVILLE    SUNNY     77  51  41 W12G18    29.93S
FORT MC COY    MOSUNNY   77  43  29 W12G24    29.89S
VIROQUA        FAIR      74  50  41 NW7G21    29.92S
WIS DELLS      MOSUNNY   78  42  27 W15G22    29.88S
$$

...ELSEWHERE IN WISCONSIN...


CITY           SKY/WX    TMP DP  RH WIND       PRES   REMARKS
MILWAUKEE      MOSUNNY   79  43  27 W18G28    29.84S
MADISON        MOSUNNY   77  48  35 W12G18    29.87F
GREEN BAY      MOSUNNY   75  54  47 W16       29.81R
EAU CLAIRE     MOSUNNY   76  50  40 W21G26    29.86S
BLACK RVR FLS  FAIR      79  44  28 W12G18    29.87S
MEDFORD        PTSUNNY   70  53  54 NW15      29.85S
WAUSAU         MOSUNNY   74  49  41 NW14G26   29.82S
WIS RAPIDS     SUNNY     77  44  30 NW14G26   29.86S
MARSHFIELD     SUNNY     77  48  35 NW15G22   29.85S
RICE LAKE      SUNNY     71  52  50 NW10G22   29.88F
$$

...NORTHEAST IOWA...


CITY           SKY/WX    TMP DP  RH WIND       PRES   REMARKS
DECORAH        SUNNY     73  50  43 NW14G25   29.93S
MASON CITY     SUNNY     78  54  43 NW13G20   29.98F
CHARLES CITY   SUNNY     75  55  50 NW13G20   29.96S
OELWEIN        SUNNY     75  54  46 W8        29.96F
$$

...ELSEWHERE IN IOWA...


CITY           SKY/WX    TMP DP  RH WIND       PRES   REMARKS
DES MOINES     MOSUNNY   81  55  40 VRB6      29.95F
IOWA CITY      SUNNY     79  51  37 N10       29.95F
FORT DODGE     SUNNY     77  54  44 W7        29.99F
$$

...NORTHERN ILLINOIS...


CITY           SKY/WX    TMP DP  RH WIND       PRES   REMARKS
CHICAGO-OHARE  MOSUNNY   80  49  33 W14       29.86S
CHICAGO-MIDWAY MOSUNNY   82  51  34 W16G23    29.86S
MOLINE         SUNNY     81  52  36 NW9       29.93S
ROCKFORD       MOSUNNY   81  47  30 NW14      29.90F
PEORIA         MOSUNNY   83  62  49 N7        29.91S
$$

NOTE: "FAIR" INDICATES FEW OR NO CLOUDS BELOW 12,000 FEET WITH NO
SIGNIFICANT WEATHER AND/OR OBSTRUCTIONS TO VISIBILITY. WIND
SPEEDS ARE IN MILES-PER-HOUR.



USA.gov is the U.S. government's official web portal to all federal, state and local government web resources and services.